カタログに戻る

THOR 3

運用中通信GEO
NORAD 25358·PAYLOAD·🇳🇴 Norway

打ち上げ Jun 10, 1998 から Cape Canaveral Space Force Station

Loading…

TLE

最新Source: Space-Track

元期: Sep 14, 2026, 08:20 UTC

1 25358U 98035A   26257.34743833 -.00000123  00000-0  00000-0 0  9992
2 25358  11.9623  38.2365 0005534 186.9217 183.6155  0.98828440103371

AllMySatでTHOR 3をリアルタイム追跡

Download on the App Store